This is the latest recevied weather packets stored in our database for station/object W8CEN. If no packets are shown the sender has not sent any weather packets the latest 1 day(s).
| Time | Temp. | Humidity | Pressure | Rain* | Wind** | Luminosity | Snow |
|---|---|---|---|---|---|---|---|
| 1777971946 | 16.67° C | 68% | 981.1 hPa | 0 mm | 1.34 m/s, 256° | 0 W/m² | - |
| 1777971644 | 16.67° C | 69% | 981.1 hPa | 0 mm | 1.34 m/s, 263° | 0 W/m² | - |
| 1777971341 | 16.67° C | 69% | 981.1 hPa | 0 mm | 1.34 m/s, 247° | 0 W/m² | - |
| 1777971039 | 16.67° C | 68% | 981.1 hPa | 0 mm | 2.24 m/s, 244° | 0 W/m² | - |
| 1777970737 | 16.67° C | 69% | 981.2 hPa | 0 mm | 1.79 m/s, 232° | 0 W/m² | - |
| 1777970435 | 17.22° C | 68% | 981.3 hPa | 0 mm | 1.34 m/s, 234° | 0 W/m² | - |
| 1777970132 | 17.22° C | 68% | 981.1 hPa | 0 mm | 2.24 m/s, 251° | 0 W/m² | - |
| 1777969828 | 17.22° C | 67% | 981 hPa | 0 mm | 2.24 m/s, 267° | 0 W/m² | - |
| 1777969524 | 17.78° C | 66% | 980.8 hPa | 0 mm | 2.24 m/s, 219° | 0 W/m² | - |
| 1777969221 | 17.78° C | 64% | 980.7 hPa | 0 mm | 2.24 m/s, 223° | 0 W/m² | - |
| 1777968918 | 17.78° C | 63% | 980.7 hPa | 0 mm | 1.34 m/s, 247° | 0 W/m² | - |
| 1777968615 | 17.78° C | 62% | 980.9 hPa | 0 mm | 3.13 m/s, 240° | 0 W/m² | - |
| 1777968311 | 17.78° C | 63% | 980.9 hPa | 0 mm | 2.24 m/s, 188° | 0 W/m² | - |
| 1777968007 | 17.22° C | 65% | 980.9 hPa | 0 mm | 0.45 m/s, 46° | 0 W/m² | - |
| 1777967704 | 17.22° C | 66% | 980.9 hPa | 0 mm | 1.79 m/s, 244° | 0 W/m² | - |
| 1777967401 | 17.22° C | 66% | 980.8 hPa | 0 mm | 0.89 m/s, 256° | 0 W/m² | - |
| 1777967098 | 17.22° C | 66% | 980.6 hPa | 0 mm | 0.89 m/s, 239° | 0 W/m² | - |
| 1777966795 | 17.22° C | 66% | 980.3 hPa | 0 mm | 0.89 m/s, 262° | 0 W/m² | - |
| 1777966492 | 17.22° C | 66% | 980.4 hPa | 0 mm | 0.89 m/s, 241° | 0 W/m² | - |
| 1777966190 | 17.22° C | 66% | 980.3 hPa | 0 mm | 0.89 m/s, 246° | 0 W/m² | - |
| 1777965886 | 17.78° C | 66% | 980.4 hPa | 0 mm | 0.45 m/s, 243° | 0 W/m² | - |
| 1777965582 | 17.78° C | 65% | 980.6 hPa | 0 mm | 0.89 m/s, 268° | 0 W/m² | - |
| 1777965278 | 17.78° C | 64% | 980.7 hPa | 0 mm | 0.89 m/s, 245° | 0 W/m² | - |
| 1777964976 | 17.78° C | 64% | 980.6 hPa | 0 mm | 1.79 m/s, 222° | 0 W/m² | - |
| 1777964673 | 17.78° C | 65% | 980.5 hPa | 0 mm | 0.45 m/s, 236° | 0 W/m² | - |
* Rain latest hour (hover to see other rain measurements)
** Current wind speed in m/s (hover to see current wind gust speed)